Weather History for Hurghada, Egypt

Change the Weather History Date:

Saturday, November 30, 2013

  Actual Average Record
Temperature  
Mean Temperature 69 °F -  
Max Temperature 77 °F 71 °F 84 °F (2010)
Min Temperature 61 °F 54 °F 51 °F (2011)
Cooling Degree Days 4    
Growing Degree Days 19 (Base 50)    
Moisture  
Dew Point 57 °F    
Average Humidity 62    
Maximum Humidity 73    
Minimum Humidity 44    
Precipitation  
Precipitation 0.00 in - - ()
Sea Level Pressure  
Sea Level Pressure 29.98 in    
Wind  
Wind Speed 8 mph ()    
Max Wind Speed 13 mph    
Max Gust Speed -    
Visibility 6.0 miles    
Events      
Averages and records for this station are not official NWS values.
T = Trace of Precipitation, MM = Missing Value Source: Averaged Metar Reports

Daily Weather History Graph

Daily Weather History Graph

Search for Another Location

Airport:

Trip Planner

Search our weather history database for the weather conditions in past years. The results will help you decide how hot, cold, wet, or windy it might be!

Date:

Astronomy

Nov. 30, 2013 Rise Set
Actual Time 6:16 AM EET 4:50 PM EET
Civil Twilight 5:51 AM EET 5:15 PM EET
Nautical Twilight 5:22 AM EET 5:44 PM EET
Astronomical Twilight 4:54 AM EET 6:12 PM EET
Moon 3:18 AM EET (11/30) 2:49 PM EET (11/30)
Length of Visible Light 11h 24m
Length of Day
10h 34m
Waning Crescent, 9% of the Moon is Illuminated
Nov 30
Waning Crescent
Dec 3
New
Dec 9
First Quarter
Dec 17
Full
Dec 25
Last Quarter

Hourly Weather History & Observations

Time (EET) Temp. Dew Point Humidity Pressure Visibility Wind Dir Wind Speed Gust Speed Precip Events Conditions
12:00 AM 68.0 °F 55.4 °F 64% 29.98 in - NW 6.9 mph - N/A   Clear
1:00 AM 66.2 °F 55.4 °F 68% 29.98 in - NW 9.2 mph - N/A   Clear
2:00 AM 66 °F 55 °F 60% 29.99 in 6 mi NW 11.5 mph - -  
2:00 AM 66.2 °F 55.4 °F 68% 29.98 in - NW 11.5 mph - N/A   Clear
3:00 AM 64.4 °F 53.6 °F 68% 29.98 in - WNW 11.5 mph - N/A   Clear
4:00 AM 64.4 °F 53.6 °F 68% 29.98 in - WNW 12.7 mph - N/A   Clear
5:00 AM 63 °F 53 °F 62% 29.98 in 6 mi NW 11.5 mph - -  
5:00 AM 62.6 °F 53.6 °F 72% 29.98 in - NW 11.5 mph - N/A   Clear
6:00 AM 62.6 °F 53.6 °F 72% 29.98 in - NW 10.4 mph - N/A   Clear
7:00 AM 64.4 °F 53.6 °F 68% 29.98 in - NW 9.2 mph - N/A   Clear
8:00 AM 67 °F 54 °F 53% 30.02 in 6 mi NW 10.4 mph - -  
8:00 AM 66.2 °F 53.6 °F 64% 30.01 in - NW 10.4 mph - N/A   Clear
9:00 AM 69.8 °F 53.6 °F 56% 30.01 in - NNW 11.5 mph - N/A   Clear
10:00 AM 73.4 °F 57.2 °F 57% 30.01 in - NNW 9.2 mph - N/A   Clear
11:00 AM 76 °F 60 °F 49% 30.02 in 6 mi North 11.5 mph - -   Clear
12:00 PM 77.0 °F 59.0 °F 54% 29.98 in - North 9.2 mph - N/A   Clear
1:00 PM 77.0 °F 60.8 °F 57% 29.95 in - North 9.2 mph - N/A   Clear
2:00 PM 77 °F 59 °F 44% 29.96 in 6 mi North 11.5 mph - -   Clear
2:00 PM 77.0 °F 59.0 °F 54% 29.95 in - North 11.5 mph - N/A   Clear
3:00 PM 75.2 °F 59.0 °F 57% 29.95 in - North 11.5 mph - N/A   Clear
4:00 PM 75.2 °F 59.0 °F 57% 29.95 in - North 9.2 mph - N/A   Clear
5:00 PM 74 °F 60 °F 52% 29.96 in 6 mi North 9.2 mph - -   Overcast
5:00 PM 73.4 °F 59.0 °F 61% 29.95 in - North 9.2 mph - N/A   Clear
6:00 PM 71.6 °F 60.8 °F 69% 29.98 in - Calm Calm - N/A   Clear
7:00 PM 69.8 °F 59.0 °F 68% 29.98 in - Calm Calm - N/A   Clear
8:00 PM 69.8 °F 59.0 °F 68% 30.01 in - WNW 4.6 mph - N/A   Clear
9:00 PM 68.0 °F 55.4 °F 64% 30.01 in - NW 4.6 mph - N/A   Clear
10:00 PM 68.0 °F 57.2 °F 68% 30.01 in - Calm Calm - N/A   Clear
11:00 PM 66.2 °F 57.2 °F 73% 30.01 in - NW 6.9 mph - N/A   Clear